Time,TemperatureF,DewpointF,PressureIn,WindDirection,WindDirectionDegrees,WindSpeedMPH,WindSpeedGustMPH,Humidity,HourlyPrecipIn,Conditions,Clouds,dailyrainin,SoftwareType,DateUTC
2013-04-21 00:03:00,49.5,35.8,-100.00,North,-999,0.0,0.0,59,0.00,,,-99.99,FreeWX-Wi 1.02,2013-04-21 04:03:00,
2013-04-21 00:13:00,49.3,35.6,-100.00,North,-999,0.0,0.0,59,0.00,,,-99.99,FreeWX-Wi 1.02,2013-04-21 04:13:00,
2013-04-21 00:23:00,49.1,35.8,-100.00,North,-999,0.0,0.0,60,0.00,,,-99.99,FreeWX-Wi 1.02,2013-04-21 04:23:00,
2013-04-21 00:33:00,48.9,35.6,-100.00,North,-999,0.0,0.0,60,0.00,,,-99.99,FreeWX-Wi 1.02,2013-04-21 04:33:00,
2013-04-21 00:43:00,48.7,36.0,-100.00,North,-999,0.0,0.0,61,0.00,,,-99.99,FreeWX-Wi 1.02,2013-04-21 04:43:00,
2013-04-21 00:53:00,48.6,35.8,-100.00,North,-999,0.0,0.0,61,0.00,,,-99.99,FreeWX-Wi 1.02,2013-04-21 04:53:00,
2013-04-21 01:03:00,48.4,35.6,-100.00,North,-999,0.0,0.0,61,0.00,,,-99.99,FreeWX-Wi 1.02,2013-04-21 05:03:00,
2013-04-21 01:13:00,48.2,35.8,-100.00,North,-999,0.0,0.0,62,0.00,,,-99.99,FreeWX-Wi 1.02,2013-04-21 05:13:00,
2013-04-21 01:23:00,48.0,36.0,-100.00,North,-999,0.0,0.0,63,0.00,,,-99.99,FreeWX-Wi 1.02,2013-04-21 05:23:00,
2013-04-21 01:33:00,47.8,35.8,-100.00,North,-999,0.0,0.0,63,0.00,,,-99.99,FreeWX-Wi 1.02,2013-04-21 05:33:00,
2013-04-21 01:43:00,47.7,35.8,-100.00,North,-999,0.0,0.0,63,0.00,,,-99.99,FreeWX-Wi 1.02,2013-04-21 05:43:00,
2013-04-21 01:53:00,47.5,35.6,-100.00,North,-999,0.0,0.0,63,0.00,,,-99.99,FreeWX-Wi 1.02,2013-04-21 05:53:00,
2013-04-21 02:03:00,47.3,35.4,-100.00,North,-999,0.0,0.0,63,0.00,,,-99.99,FreeWX-Wi 1.02,2013-04-21 06:03:00,
2013-04-21 02:13:00,46.9,35.4,-100.00,North,-999,0.0,0.0,64,0.00,,,-99.99,FreeWX-Wi 1.02,2013-04-21 06:13:00,
2013-04-21 02:23:00,46.8,35.2,-100.00,North,-999,0.0,0.0,64,0.00,,,-99.99,FreeWX-Wi 1.02,2013-04-21 06:23:00,
2013-04-21 02:33:00,46.8,35.2,-100.00,North,-999,0.0,0.0,64,0.00,,,-99.99,FreeWX-Wi 1.02,2013-04-21 06:33:00,
2013-04-21 02:43:00,46.6,35.1,-100.00,North,-999,0.0,0.0,64,0.00,,,-99.99,FreeWX-Wi 1.02,2013-04-21 06:43:00,
2013-04-21 02:53:00,46.6,35.4,-100.00,North,-999,0.0,0.0,65,0.00,,,-99.99,FreeWX-Wi 1.02,2013-04-21 06:53:00,
2013-04-21 03:03:00,46.6,35.4,-100.00,North,-999,0.0,0.0,65,0.00,,,-99.99,FreeWX-Wi 1.02,2013-04-21 07:03:00,
2013-04-21 03:13:00,46.4,35.2,-100.00,North,-999,0.0,0.0,65,0.00,,,-99.99,FreeWX-Wi 1.02,2013-04-21 07:13:00,
2013-04-21 03:22:00,46.2,35.4,-100.00,North,-999,0.0,0.0,66,0.00,,,-99.99,FreeWX-Wi 1.02,2013-04-21 07:22:00,
2013-04-21 03:32:00,46.2,35.4,-100.00,North,-999,0.0,0.0,66,0.00,,,-99.99,FreeWX-Wi 1.02,2013-04-21 07:32:00,
2013-04-21 03:42:00,46.0,35.2,-100.00,North,-999,0.0,0.0,66,0.00,,,-99.99,FreeWX-Wi 1.02,2013-04-21 07:42:00,
2013-04-21 03:52:00,46.0,35.2,-100.00,North,-999,0.0,0.0,66,0.00,,,-99.99,FreeWX-Wi 1.02,2013-04-21 07:52:00,
2013-04-21 04:02:00,45.9,35.2,-100.00,North,-999,0.0,0.0,66,0.00,,,-99.99,FreeWX-Wi 1.02,2013-04-21 08:02:00,
2013-04-21 04:12:00,45.7,35.4,-100.00,North,-999,0.0,0.0,67,0.00,,,-99.99,FreeWX-Wi 1.02,2013-04-21 08:12:00,
2013-04-21 04:22:00,45.5,35.2,-100.00,North,-999,0.0,0.0,67,0.00,,,-99.99,FreeWX-Wi 1.02,2013-04-21 08:22:00,
2013-04-21 04:32:00,45.1,34.9,-100.00,North,-999,0.0,0.0,67,0.00,,,-99.99,FreeWX-Wi 1.02,2013-04-21 08:32:00,
2013-04-21 04:42:00,44.6,34.3,-100.00,North,-999,0.0,0.0,67,0.00,,,-99.99,FreeWX-Wi 1.02,2013-04-21 08:42:00,
2013-04-21 04:52:00,44.6,34.3,-100.00,North,-999,0.0,0.0,67,0.00,,,-99.99,FreeWX-Wi 1.02,2013-04-21 08:52:00,
2013-04-21 05:02:00,44.1,33.8,-100.00,North,-999,0.0,0.0,67,0.00,,,-99.99,FreeWX-Wi 1.02,2013-04-21 09:02:00,
2013-04-21 05:12:00,43.9,33.6,-100.00,North,-999,0.0,2.2,67,0.00,,,-99.99,FreeWX-Wi 1.02,2013-04-21 09:12:00,
2013-04-21 05:22:00,43.7,33.4,-100.00,North,-999,0.0,5.4,67,0.00,,,-99.99,FreeWX-Wi 1.02,2013-04-21 09:22:00,
2013-04-21 05:32:00,43.7,33.4,-100.00,North,-999,0.0,2.7,67,0.00,,,-99.99,FreeWX-Wi 1.02,2013-04-21 09:32:00,
2013-04-21 05:42:00,43.3,32.7,-100.00,North,-999,0.0,0.0,66,0.00,,,-99.99,FreeWX-Wi 1.02,2013-04-21 09:42:00,
2013-04-21 05:52:00,43.3,32.7,-100.00,North,-999,0.0,3.1,66,0.00,,,-99.99,FreeWX-Wi 1.02,2013-04-21 09:52:00,
2013-04-21 06:02:00,43.3,33.1,-100.00,North,-999,0.0,2.2,67,0.00,,,-99.99,FreeWX-Wi 1.02,2013-04-21 10:02:00,
2013-04-21 06:12:00,43.3,32.7,-100.00,North,-999,0.0,2.7,66,0.00,,,-99.99,FreeWX-Wi 1.02,2013-04-21 10:12:00,
2013-04-21 06:22:00,43.2,32.5,-100.00,North,-999,0.0,4.0,66,0.00,,,-99.99,FreeWX-Wi 1.02,2013-04-21 10:22:00,
2013-04-21 06:32:00,43.2,32.9,-100.00,North,-999,0.0,2.2,67,0.00,,,-99.99,FreeWX-Wi 1.02,2013-04-21 10:32:00,
2013-04-21 06:42:00,43.0,32.7,-100.00,North,-999,0.0,3.6,67,0.00,,,-99.99,FreeWX-Wi 1.02,2013-04-21 10:42:00,
2013-04-21 06:52:00,43.0,32.7,-100.00,North,-999,0.0,3.1,67,0.00,,,-99.99,FreeWX-Wi 1.02,2013-04-21 10:52:00,
2013-04-21 07:02:00,43.0,32.7,-100.00,North,-999,0.0,3.6,67,0.00,,,-99.99,FreeWX-Wi 1.02,2013-04-21 11:02:00,
2013-04-21 07:12:00,43.2,32.9,-100.00,North,-999,0.0,2.7,67,0.00,,,-99.99,FreeWX-Wi 1.02,2013-04-21 11:12:00,
2013-04-21 07:22:00,43.2,32.9,-100.00,North,-999,0.0,4.0,67,0.00,,,-99.99,FreeWX-Wi 1.02,2013-04-21 11:22:00,
2013-04-21 07:32:00,43.2,32.9,-100.00,North,-999,0.0,4.9,67,0.00,,,-99.99,FreeWX-Wi 1.02,2013-04-21 11:32:00,
2013-04-21 07:42:00,43.5,32.9,-100.00,North,-999,0.0,3.6,66,0.00,,,-99.99,FreeWX-Wi 1.02,2013-04-21 11:42:00,
2013-04-21 07:52:00,43.7,32.7,-100.00,North,-999,0.0,4.0,65,0.00,,,-99.99,FreeWX-Wi 1.02,2013-04-21 11:52:00,
2013-04-21 08:02:00,44.1,33.1,-100.00,North,-999,0.0,4.5,65,0.00,,,-99.99,FreeWX-Wi 1.02,2013-04-21 12:02:00,
2013-04-21 08:12:00,44.4,32.5,-100.00,North,-999,0.0,4.9,63,0.00,,,-99.99,FreeWX-Wi 1.02,2013-04-21 12:12:00,
2013-04-21 08:22:00,45.1,32.9,-100.00,North,-999,0.0,5.4,62,0.00,,,-99.99,FreeWX-Wi 1.02,2013-04-21 12:22:00,
2013-04-21 08:32:00,45.9,32.7,-100.00,North,-999,0.0,3.6,60,0.00,,,-99.99,FreeWX-Wi 1.02,2013-04-21 12:32:00,
2013-04-21 08:42:00,46.8,32.4,-100.00,North,357,1.0,5.4,57,0.00,,,-99.99,FreeWX-Wi 1.02,2013-04-21 12:42:00,
2013-04-21 08:52:00,47.7,31.5,-100.00,North,357,1.0,6.3,53,0.00,,,-99.99,FreeWX-Wi 1.02,2013-04-21 12:52:00,
2013-04-21 09:02:00,48.6,31.3,-100.00,North,357,1.0,5.4,51,0.00,,,-99.99,FreeWX-Wi 1.02,2013-04-21 13:02:00,
2013-04-21 09:12:00,49.5,31.6,-100.00,North,357,1.0,3.6,50,0.00,,,-99.99,FreeWX-Wi 1.02,2013-04-21 13:12:00,
2013-04-21 09:22:00,49.8,30.4,-100.00,North,357,1.0,8.3,47,0.00,,,-99.99,FreeWX-Wi 1.02,2013-04-21 13:22:00,
2013-04-21 09:32:00,50.2,30.2,-100.00,North,357,1.0,7.6,46,0.00,,,-99.99,FreeWX-Wi 1.02,2013-04-21 13:32:00,
2013-04-21 09:42:00,50.4,29.8,-100.00,North,357,2.0,6.3,45,0.00,,,-99.99,FreeWX-Wi 1.02,2013-04-21 13:42:00,
2013-04-21 09:52:00,50.7,30.2,-100.00,North,357,1.0,5.4,45,0.00,,,-99.99,FreeWX-Wi 1.02,2013-04-21 13:52:00,
2013-04-21 10:02:00,51.3,30.0,-100.00,North,357,1.0,5.8,44,0.00,,,-99.99,FreeWX-Wi 1.02,2013-04-21 14:02:00,
2013-04-21 10:12:00,52.3,30.6,-100.00,North,357,1.0,7.6,43,0.00,,,-99.99,FreeWX-Wi 1.02,2013-04-21 14:12:00,
2013-04-21 10:22:00,53.6,31.1,-100.00,North,357,1.0,8.7,42,0.00,,,-99.99,FreeWX-Wi 1.02,2013-04-21 14:22:00,
2013-04-21 10:32:00,54.5,31.3,-100.00,North,357,1.0,8.7,41,0.00,,,-99.99,FreeWX-Wi 1.02,2013-04-21 14:32:00,
2013-04-21 10:42:00,54.9,30.9,-100.00,North,357,2.0,7.2,40,0.00,,,-99.99,FreeWX-Wi 1.02,2013-04-21 14:42:00,
2013-04-21 10:52:00,55.6,30.4,-100.00,North,357,2.0,5.8,38,0.00,,,-99.99,FreeWX-Wi 1.02,2013-04-21 14:52:00,
2013-04-21 11:02:00,56.3,30.4,-100.00,North,357,2.0,6.3,37,0.00,,,-99.99,FreeWX-Wi 1.02,2013-04-21 15:02:00,
2013-04-21 11:12:00,57.2,30.6,-100.00,North,357,2.0,9.6,36,0.00,,,-99.99,FreeWX-Wi 1.02,2013-04-21 15:12:00,
2013-04-21 11:22:00,57.7,30.9,-100.00,North,357,2.0,4.0,36,0.00,,,-99.99,FreeWX-Wi 1.02,2013-04-21 15:22:00,
2013-04-21 11:32:00,58.5,31.6,-100.00,North,357,1.0,3.6,36,0.00,,,-99.99,FreeWX-Wi 1.02,2013-04-21 15:32:00,
2013-04-21 11:42:00,59.4,32.4,-100.00,North,357,1.0,4.0,36,0.00,,,-99.99,FreeWX-Wi 1.02,2013-04-21 15:42:00,
2013-04-21 11:52:00,60.8,32.2,-100.00,North,357,1.0,8.7,34,0.00,,,-99.99,FreeWX-Wi 1.02,2013-04-21 15:52:00,
2013-04-21 12:02:00,60.8,32.9,-100.00,North,357,2.0,5.4,35,0.00,,,-99.99,FreeWX-Wi 1.02,2013-04-21 16:02:00,
2013-04-21 12:12:00,61.5,33.6,-100.00,North,357,2.0,5.4,35,0.00,,,-99.99,FreeWX-Wi 1.02,2013-04-21 16:12:00,
2013-04-21 12:22:00,62.1,33.4,-100.00,North,357,1.0,7.6,34,0.00,,,-99.99,FreeWX-Wi 1.02,2013-04-21 16:22:00,
2013-04-21 12:32:00,63.0,34.2,-100.00,North,357,1.0,4.0,34,0.00,,,-99.99,FreeWX-Wi 1.02,2013-04-21 16:32:00,
2013-04-21 12:42:00,63.3,34.5,-100.00,North,357,1.0,4.0,34,0.00,,,-99.99,FreeWX-Wi 1.02,2013-04-21 16:42:00,
2013-04-21 12:52:00,63.7,34.0,-100.00,North,357,2.0,7.6,33,0.00,,,-99.99,FreeWX-Wi 1.02,2013-04-21 16:52:00,
2013-04-21 13:02:00,64.0,34.3,-100.00,North,357,1.0,4.5,33,0.00,,,-99.99,FreeWX-Wi 1.02,2013-04-21 17:02:00,
2013-04-21 13:12:00,63.5,32.4,-100.00,North,357,1.0,3.6,31,0.00,,,-99.99,FreeWX-Wi 1.02,2013-04-21 17:12:00,
2013-04-21 13:22:00,63.5,32.4,-100.00,North,357,1.0,7.2,31,0.00,,,-99.99,FreeWX-Wi 1.02,2013-04-21 17:22:00,
2013-04-21 13:32:00,62.8,32.5,-100.00,North,357,1.0,4.0,32,0.00,,,-99.99,FreeWX-Wi 1.02,2013-04-21 17:32:00,
2013-04-21 13:42:00,61.9,33.3,-100.00,North,357,1.0,5.8,34,0.00,,,-99.99,FreeWX-Wi 1.02,2013-04-21 17:42:00,
2013-04-21 13:52:00,62.1,33.4,-100.00,North,357,1.0,5.4,34,0.00,,,-99.99,FreeWX-Wi 1.02,2013-04-21 17:52:00,
2013-04-21 14:02:00,61.7,33.1,-100.00,North,357,2.0,5.8,34,0.00,,,-99.99,FreeWX-Wi 1.02,2013-04-21 18:02:00,
2013-04-21 14:12:00,61.3,32.7,-100.00,North,357,1.0,4.9,34,0.00,,,-99.99,FreeWX-Wi 1.02,2013-04-21 18:12:00,
2013-04-21 14:22:00,61.0,32.4,-100.00,North,357,1.0,4.0,34,0.00,,,-99.99,FreeWX-Wi 1.02,2013-04-21 18:22:00,
2013-04-21 14:32:00,60.6,32.2,-100.00,North,357,1.0,4.5,34,0.00,,,-99.99,FreeWX-Wi 1.02,2013-04-21 18:32:00,
2013-04-21 14:42:00,60.4,32.0,-100.00,North,357,1.0,5.4,34,0.00,,,-99.99,FreeWX-Wi 1.02,2013-04-21 18:42:00,
2013-04-21 14:52:00,60.4,32.7,-100.00,North,357,1.0,5.8,35,0.00,,,-99.99,FreeWX-Wi 1.02,2013-04-21 18:52:00,
2013-04-21 15:02:00,60.3,32.5,-100.00,North,357,1.0,5.8,35,0.00,,,-99.99,FreeWX-Wi 1.02,2013-04-21 19:02:00,
2013-04-21 15:12:00,60.6,32.9,-100.00,North,357,1.0,5.4,35,0.00,,,-99.99,FreeWX-Wi 1.02,2013-04-21 19:12:00,
2013-04-21 15:22:00,60.4,32.0,-100.00,North,357,1.0,4.9,34,0.00,,,-99.99,FreeWX-Wi 1.02,2013-04-21 19:22:00,
2013-04-21 15:32:00,59.9,31.5,-100.00,North,357,1.0,6.3,34,0.00,,,-99.99,FreeWX-Wi 1.02,2013-04-21 19:32:00,
2013-04-21 15:42:00,59.9,31.5,-100.00,North,357,1.0,9.2,34,0.00,,,-99.99,FreeWX-Wi 1.02,2013-04-21 19:42:00,
2013-04-21 15:52:00,59.7,31.3,-100.00,North,357,1.0,4.0,34,0.00,,,-99.99,FreeWX-Wi 1.02,2013-04-21 19:52:00,
2013-04-21 16:02:00,59.7,31.3,-100.00,North,357,1.0,4.0,34,0.00,,,-99.99,FreeWX-Wi 1.02,2013-04-21 20:02:00,
2013-04-21 16:12:00,60.3,31.8,-100.00,North,357,1.0,5.8,34,0.00,,,-99.99,FreeWX-Wi 1.02,2013-04-21 20:12:00,
2013-04-21 16:22:00,60.3,31.8,-100.00,North,357,1.0,4.9,34,0.00,,,-99.99,FreeWX-Wi 1.02,2013-04-21 20:22:00,
2013-04-21 16:32:00,60.1,31.6,-100.00,North,357,1.0,7.2,34,0.00,,,-99.99,FreeWX-Wi 1.02,2013-04-21 20:32:00,
2013-04-21 16:42:00,59.7,30.6,-100.00,North,357,1.0,4.5,33,0.00,,,-99.99,FreeWX-Wi 1.02,2013-04-21 20:42:00,
2013-04-21 16:52:00,59.7,31.3,-100.00,North,-999,0.0,4.9,34,0.00,,,-99.99,FreeWX-Wi 1.02,2013-04-21 20:52:00,
2013-04-21 17:02:00,59.4,30.9,-100.00,North,-999,0.0,3.6,34,0.00,,,-99.99,FreeWX-Wi 1.02,2013-04-21 21:02:00,
2013-04-21 17:12:00,59.4,30.2,-100.00,North,-999,0.0,3.1,33,0.00,,,-99.99,FreeWX-Wi 1.02,2013-04-21 21:12:00,
2013-04-21 17:22:00,59.2,30.9,-100.00,North,-999,0.0,4.0,34,0.00,,,-99.99,FreeWX-Wi 1.02,2013-04-21 21:22:00,
2013-04-21 17:32:00,59.2,30.9,-100.00,North,-999,0.0,4.9,34,0.00,,,-99.99,FreeWX-Wi 1.02,2013-04-21 21:32:00,
2013-04-21 17:42:00,58.6,31.1,-100.00,North,-999,0.0,0.0,35,0.00,,,-99.99,FreeWX-Wi 1.02,2013-04-21 21:42:00,
2013-04-21 17:52:00,58.6,30.4,-100.00,North,-999,0.0,4.0,34,0.00,,,-99.99,FreeWX-Wi 1.02,2013-04-21 21:52:00,
2013-04-21 18:02:00,58.5,30.9,-100.00,North,-999,0.0,0.0,35,0.00,,,-99.99,FreeWX-Wi 1.02,2013-04-21 22:02:00,
2013-04-21 18:12:00,58.1,30.6,-100.00,North,-999,0.0,0.0,35,0.00,,,-99.99,FreeWX-Wi 1.02,2013-04-21 22:12:00,
2013-04-21 18:22:00,57.9,30.4,-100.00,North,-999,0.0,0.0,35,0.00,,,-99.99,FreeWX-Wi 1.02,2013-04-21 22:22:00,
2013-04-21 18:32:00,57.6,30.2,-100.00,North,-999,0.0,0.0,35,0.00,,,-99.99,FreeWX-Wi 1.02,2013-04-21 22:32:00,
2013-04-21 18:42:00,57.2,29.8,-100.00,North,-999,0.0,3.6,35,0.00,,,-99.99,FreeWX-Wi 1.02,2013-04-21 22:42:00,
2013-04-21 18:52:00,57.0,29.7,-100.00,North,-999,0.0,2.7,35,0.00,,,-99.99,FreeWX-Wi 1.02,2013-04-21 22:52:00,
2013-04-21 19:02:00,56.7,29.3,-100.00,North,-999,0.0,4.5,35,0.00,,,-99.99,FreeWX-Wi 1.02,2013-04-21 23:02:00,
2013-04-21 19:12:00,56.3,28.9,-100.00,North,-999,0.0,2.7,35,0.00,,,-99.99,FreeWX-Wi 1.02,2013-04-21 23:12:00,
2013-04-21 19:22:00,56.1,29.5,-100.00,North,-999,0.0,3.1,36,0.00,,,-99.99,FreeWX-Wi 1.02,2013-04-21 23:22:00,
2013-04-21 19:32:00,55.6,29.1,-100.00,North,-999,0.0,5.8,36,0.00,,,-99.99,FreeWX-Wi 1.02,2013-04-21 23:32:00,
2013-04-21 19:42:00,55.2,29.5,-100.00,North,-999,0.0,2.7,37,0.00,,,-99.99,FreeWX-Wi 1.02,2013-04-21 23:42:00,
2013-04-21 19:52:00,54.7,28.9,-100.00,North,-999,0.0,0.0,37,0.00,,,-99.99,FreeWX-Wi 1.02,2013-04-21 23:52:00,
2013-04-21 20:02:00,54.3,28.6,-100.00,North,-999,0.0,0.0,37,0.00,,,-99.99,FreeWX-Wi 1.02,2013-04-22 00:02:00,
2013-04-21 20:12:00,54.0,28.9,-100.00,North,-999,0.0,0.0,38,0.00,,,-99.99,FreeWX-Wi 1.02,2013-04-22 00:12:00,
2013-04-21 20:22:00,53.6,29.3,-100.00,North,-999,0.0,0.0,39,0.00,,,-99.99,FreeWX-Wi 1.02,2013-04-22 00:22:00,
2013-04-21 20:32:00,53.1,29.3,-100.00,North,-999,0.0,0.0,40,0.00,,,-99.99,FreeWX-Wi 1.02,2013-04-22 00:32:00,
2013-04-21 20:42:00,52.7,29.1,-100.00,North,-999,0.0,0.0,40,0.00,,,-99.99,FreeWX-Wi 1.02,2013-04-22 00:42:00,
2013-04-21 20:52:00,52.2,29.1,-100.00,North,-999,0.0,2.7,41,0.00,,,-99.99,FreeWX-Wi 1.02,2013-04-22 00:52:00,
2013-04-21 21:02:00,51.6,28.8,-100.00,North,-999,0.0,4.0,41,0.00,,,-99.99,FreeWX-Wi 1.02,2013-04-22 01:02:00,
2013-04-21 21:12:00,51.4,28.6,-100.00,North,-999,0.0,4.0,41,0.00,,,-99.99,FreeWX-Wi 1.02,2013-04-22 01:12:00,
2013-04-21 21:22:00,51.1,28.8,-100.00,North,-999,0.0,4.9,42,0.00,,,-99.99,FreeWX-Wi 1.02,2013-04-22 01:22:00,
2013-04-21 21:31:00,50.7,28.4,-100.00,North,-999,0.0,0.0,42,0.00,,,-99.99,FreeWX-Wi 1.02,2013-04-22 01:31:00,
2013-04-21 21:41:00,50.5,28.2,-100.00,North,-999,0.0,0.0,42,0.00,,,-99.99,FreeWX-Wi 1.02,2013-04-22 01:41:00,
2013-04-21 21:51:00,50.2,28.0,-100.00,North,-999,0.0,3.6,42,0.00,,,-99.99,FreeWX-Wi 1.02,2013-04-22 01:51:00,
2013-04-21 22:01:00,49.8,27.7,-100.00,North,-999,0.0,5.4,42,0.00,,,-99.99,FreeWX-Wi 1.02,2013-04-22 02:01:00,
2013-04-21 22:11:00,49.6,28.0,-100.00,North,-999,0.0,0.0,43,0.00,,,-99.99,FreeWX-Wi 1.02,2013-04-22 02:11:00,
2013-04-21 22:21:00,49.3,27.7,-100.00,North,-999,0.0,3.6,43,0.00,,,-99.99,FreeWX-Wi 1.02,2013-04-22 02:21:00,
2013-04-21 22:31:00,48.9,28.0,-100.00,North,-999,0.0,0.0,44,0.00,,,-99.99,FreeWX-Wi 1.02,2013-04-22 02:31:00,
2013-04-21 22:41:00,48.7,27.9,-100.00,North,-999,0.0,4.0,44,0.00,,,-99.99,FreeWX-Wi 1.02,2013-04-22 02:41:00,
2013-04-21 22:51:00,48.4,27.5,-100.00,North,-999,0.0,3.6,44,0.00,,,-99.99,FreeWX-Wi 1.02,2013-04-22 02:51:00,
2013-04-21 23:01:00,48.0,27.1,-100.00,North,-999,0.0,3.1,44,0.00,,,-99.99,FreeWX-Wi 1.02,2013-04-22 03:01:00,
2013-04-21 23:11:00,47.8,27.0,-100.00,North,-999,0.0,4.0,44,0.00,,,-99.99,FreeWX-Wi 1.02,2013-04-22 03:11:00,
2013-04-21 23:21:00,47.5,27.1,-100.00,North,-999,0.0,3.6,45,0.00,,,-99.99,FreeWX-Wi 1.02,2013-04-22 03:21:00,
2013-04-21 23:31:00,47.3,27.0,-100.00,North,-999,0.0,3.1,45,0.00,,,-99.99,FreeWX-Wi 1.02,2013-04-22 03:31:00,
2013-04-21 23:41:00,47.1,27.0,-100.00,North,-999,0.0,0.0,45,0.00,,,-99.99,FreeWX-Wi 1.02,2013-04-22 03:41:00,
2013-04-21 23:51:00,46.8,26.6,-100.00,North,-999,0.0,4.0,45,0.00,,,-99.99,FreeWX-Wi 1.02,2013-04-22 03:51:00,